METEOR 2-5 DEB, 28594

Orbit data source: Space-Track

METEOR 2-5 DEB, 28594 is space debris in LEO originally from a launch on Wed, 31 Oct 1979 UTC launched from the Plesetsk Missile And Space Complex (PKMTR). Debris objects in space refer to the collection of defunct objects orbiting the Earth. Examples of debris include non-operational satellites, rocket bodies, and fragments generated from explosions, collisions, or faulty payload assembly.

Loading next visibility...
Identifier
28594, 1979-095E
Orbit
LEO
Country
Flag of CISCIS
Related business
Manufacturer
Unknown
Mission
Spacecraft
Bus & Motor
Unknown
Mass
Unknown
Launch date (UTC)
1979-10-31 (46 years ago)
Launch vehicle
Unknown
Launch site
Plesetsk Missile And Space Complex (PKMTR)
Object type
Payload
Rocket body
Debris
Shape & HBR
Unknown shape, 0.1 m
Radar Cross Section
Small (<0.1 m²)

Expand to show TLE details & history
Last TLE update: 5 days ago

TLE from 5 days ago
0 METEOR 2-5 DEB
1 28594U 79095E   25350.95143665  .00012756  00000-0  23987-2 0  9994
2 28594  81.1619 214.9527 0018321  21.7897 338.4079 14.64460414106886
Epoch: 2025-12-16T22:50Z
TLE epoch observation values (Epoch: 2025-12-16T22:50:04.126Z)
Latitude
0.00001°
Longitude
146.60723°
Altitude
669.758 km
Speed
7.529 km/s
True Right ascension
14h 19m 48s
True Declination
0° 00' 00"
Sunlit
Object was in daylight at epoch
Visualization orbit readout
Latitude
Unknown
Longitude
Unknown
Altitude
Unknown
Speed
Unknown
Apparent Right ascension
Unknown
Apparent Declination
Unknown
Sunlit
N/A
Visualization observer readout
Local Sidereal Time
13:23:35
Azimuth
Unknown
Elevation
Unknown
Doppler factor
Unknown
Orbital elements
Apogee altitude
688.838 km
Perigee altitude
662.99 km
Semi-major axis
7,054.051 km
Eccentricity
0.00183
Inclination
81.1619°
RAAN
214.9527°
Arg. of periapsis
21.7897°
True anomaly
338.33048°
Mean anomaly
338.4079°
Eccentric anomaly
338.3692°
Mean motion
3.66341 °/min
Orbital period
98.27 mins
BSTAR
0.0023987
Loading maneuver chart data...
Computing Atmospheric mass density...

Documentation

Showing up to 5 results
|